User: anonymous   Login
Location: Biharia
(46.4333°N, 22.8000°E)
Time: 16:38:31
(UTC+00:00)
Language:

Meteor 1-21 Rocket - Orbit

View from above orbital plane
View from above orbital plane
View from above satellite
View from above satellite

Ground track
Ground track

The orbit data is extracted from the following two-line orbital elements,

1 07715U 75023B   22024.52500437 -.00000102  00000-0 -68454-4 0  9999
2 07715  81.2198  37.2957 0053053  80.3163 280.3993 14.06812034401885
Epoch (UTC): 24 January 2022 12:36:00
Eccentricity: 0.0053053
inclination: 81.2198°
perigee height: 832 km
apogee height: 909 km
right ascension of ascending node: 37.2957°
argument of perigee: 80.3163°
revolutions per day: 14.06812034
mean anomaly at epoch: 280.3993°
orbit number at epoch: 40188

The dashed part of the orbit path shows where the satellite is in the earth's shadow,  

DLR